Regional Weather Roundup
Issued by NWS

Home | Current Version | Previous Version | Graphics & Text | Print | Product List | Glossary On
Versions: 1 2 3 4 5 6 7 8 9 10 11 12 13 14 15 16 17 18 19 20 21 22 23 24 25 26 27
000
ASUS45 KTFX 052210
RWRMT
MONTANA REGIONAL WEATHER ROUNDUP
NATIONAL WEATHER SERVICE GREAT FALLS MT
400 PM MDT THU MAY 05 2016

NOTE: "FAIR" INDICATES FEW OR NO CLOUDS BELOW 12000 FEET WITH NO
SIGNIFICANT WEATHER AND/OR OBSTRUCTIONS TO VISIBILITY.

MTZ001>007-043-052300-
WEST OF THE DIVIDE

CITY           SKY/WX    TMP DP  RH WIND       PRES   REMARKS
KALISPELL      MOSUNNY   75  43  31 S6        29.86F
MISSOULA       CLOUDY    78  43  28 NW7       29.83F
BUTTE          CLOUDY    73  26  17 S13G18    29.94F
MULLAN PASS    PTSUNNY   61  42  49 VRB6      29.99F
ANACONDA         N/A     73  36  25 N3        29.90F
DEER LODGE       N/A     73  37  27 NE5       29.91F
EUREKA           N/A     72  45  37 N5        29.90F
HAMILTON         N/A     73  39  29 N3        29.84F
LIBBY            N/A     73  45  35 NW3       29.88S
PLAINS           N/A     78  51  38 CALM      29.85F
$$

MTZ008-052>055-052300-
SOUTHWEST MONTANA

CITY           SKY/WX    TMP DP  RH WIND       PRES   REMARKS
BOZEMAN        SUNNY     82  35  18 VRB5      29.88F
DILLON         CLOUDY    75  28  17 CALM      29.88F
ENNIS          MOSUNNY   75  28  17 SW13G20   29.97F
THREE FORKS      N/A     81  81 100 N3        29.89F HX  92
TWIN BRIDGES     N/A     77  31  18 W2        29.90F
$$

MTZ009-010-012-014-046-048-049-054-052300-
EAST SLOPES AND CENTRAL MONTANA

CITY           SKY/WX    TMP DP  RH WIND       PRES   REMARKS
CUT BANK         N/A     70  40  33 N18       29.95S
GREAT FALLS    CLOUDY    78  40  25 NW9       29.86F
MALMSTROM AFB  CLOUDY    77  41  27 N6        29.86F
HELENA         CLOUDY    80  35  19 E9        29.85F
CHOTEAU          N/A     75  37  25 N13       29.90F
CONRAD           N/A     75  50  41 NW16      29.94S
$$

MTZ011-013-016-021-045-047-050-051-052300-
NORTH CENTRAL MONTANA

CITY           SKY/WX    TMP DP  RH WIND       PRES   REMARKS
HAVRE          CLOUDY    81  46  29 NW15      29.83S
LEWISTOWN      PTSUNNY   78  41  26 N9        29.89F
N BAR RANCH      N/A     79  32  18 N10       29.93S
$$

MTZ017>020-022>027-061-062-052300-
NORTHEAST MONTANA

CITY           SKY/WX    TMP DP  RH WIND       PRES   REMARKS
GLASGOW        CLOUDY    85  39  19 VRB5      29.78F
JORDAN           N/A     84  39  20 W8        29.81F
SIDNEY         CLOUDY    88  39  18 S12       29.77F
WOLF POINT     MOSUNNY   88  43  20 W12       29.77F
POPLAR           N/A     88  43  20 W12G20    29.77F
SCOBEY           N/A     88  36  15 W10       29.78F
$$

MTZ028>42-056>058-052300-
SOUTHCENTRAL AND SOUTHEAST MONTANA

CITY           SKY/WX    TMP DP  RH WIND       PRES   REMARKS
BAKER          CLOUDY    84  36  18 S9        29.85F
BILLINGS       MOSUNNY   84  31  14 CALM      29.87F
LIVINGSTON     CLOUDY    82  27  13 S16G28    29.88F
MILES CITY     CLOUDY    87  39  18 W10       29.81F
EKALAKA          N/A     84  40  21 SW2       29.88F
FORSYTH          N/A     86  39  19 CALM      29.82F
LAUREL           N/A     84  34  16 MISG      29.87F
ROUNDUP          N/A     82  33  17 W8        29.79F
$$

REGIONAL REPORTS...DAKOTAS

CITY           SKY/WX    TMP DP  RH WIND       PRES   REMARKS
WILLISTON      MOSUNNY   87  36  16 SW10      29.77F
MINOT          SUNNY     94  34  12 W7G22     29.74F
DICKINSON      SUNNY     84  31  14 SW8       29.81F
BEACH            N/A     86  32  14 SW10      29.85F
CROSBY           N/A     90  36  14 W20G29    29.75F
TIOGA            N/A     86  36  16 SW12G22   29.82F
WATFORD CITY     N/A     86  37  17 SW9       29.79F
BISMARCK       SUNNY     88  45  22 SW7       29.80F
GRAND FORKS    MOSUNNY   92  39  15 SW20      29.73F
FARGO          SUNNY     90  34  13 SW16      29.78F
BUFFALO SD       N/A     86  37  17 W5        29.81F
RAPID CITY     CLOUDY    82  46  28 SE10      29.88F
$$

REGIONAL REPORTS...WYOMING/IDAHO/WASHINGTON

CITY           SKY/WX    TMP DP  RH WIND       PRES   REMARKS
GILLETTE       CLOUDY    79  39  23 SW6       29.94F
SHERIDAN       CLOUDY    82  35  18 VRB3      29.91F
BUFFALO WY     CLOUDY    81  33  17 NE9       29.97F
CODY           CLOUDY    77  30  18 S7        29.95F
YELLOWSTONE LA   N/A     60  24  25 CALM      30.14F
IDAHO FALLS    CLOUDY    82  26  13 SW12      29.89F
SALMON         MOSUNNY   79  37  22 NE3       29.77F
BOISE          PTSUNNY   77  45  32 N10       29.75F
SPOKANE        PTSUNNY   70  48  45 N8        29.91F
$$

REGIONAL REPORTS...ALBERTA

CITY           SKY/WX    TMP DP  RH WIND       PRES   REMARKS
EDMONTON       SUNNY     63  27  25 W6        30.00F
CALGARY        PTSUNNY   50  36  57 N13       30.07F
LETHBRIDGE     PTSUNNY   66  36  32 N14G22    29.99R
MEDICINE HAT   CLOUDY    72  41  33 NW17G28   29.90R
WATERTON GATE    N/A     57  36  44 NE13G20     N/A
CARDSTON         N/A     64  34  32 N14G21      N/A
MILK RIVER       N/A     68  39  34 N17G25      N/A
$$

REGIONAL REPORTS...SASKATCHEWAN

CITY           SKY/WX    TMP DP  RH WIND       PRES   REMARKS
SWIFT CURRENT  SUNNY     81  37  21 W23G30    29.81R
REGINA         PTSUNNY   90  39  17 NW20      29.70S
SASKATOON      PTSUNNY   79  41  25 N29G38    29.73R
CYPRESS HILLS    N/A     68  39  34 N10G18      N/A
VAL MARIE        N/A     82  32  16 NW7         N/A
ROCKGLEN         N/A     82  36  18 W12G18      N/A
ASSINIBOIA       N/A     54  39  58 SW6         N/A
$$




USA.gov is the U.S. government's official web portal to all federal, state and local government web resources and services.